Time,TemperatureF,DewpointF,PressureIn,WindDirection,WindDirectionDegrees,WindSpeedMPH,WindSpeedGustMPH,Humidity,HourlyPrecipIn,Conditions,Clouds,dailyrainin,SoftwareType,DateUTC
2013-04-16 00:00:00,64.4,55.2,30.15,North,0,0.0,0.0,72,0.00,CLR,FEW,0.63,WeatherDisplay:10.37,2013-04-16 04:00:00,
2013-04-16 00:01:00,64.4,55.2,30.15,North,0,0.0,0.0,72,0.00,CLR,FEW,0.63,WeatherDisplay:10.37,2013-04-16 04:01:00,
2013-04-16 00:02:00,64.4,55.6,30.15,North,0,0.0,0.0,73,0.00,RA,FEW,0.00,WeatherDisplay:10.37,2013-04-16 04:02:00,
2013-04-16 00:06:00,64.4,55.6,30.15,North,0,0.0,0.0,73,0.00,RA,FEW,0.00,WeatherDisplay:10.37,2013-04-16 04:06:00,
2013-04-16 00:09:00,64.2,55.4,30.15,North,0,0.0,0.0,73,0.00,RA,FEW,0.00,WeatherDisplay:10.37,2013-04-16 04:09:00,
2013-04-16 00:14:00,64.2,55.4,30.15,North,0,0.0,0.0,73,0.00,RA,FEW,0.00,WeatherDisplay:10.37,2013-04-16 04:14:00,
2013-04-16 00:19:00,63.9,55.4,30.15,North,0,0.0,0.0,74,0.00,RA,FEW,0.00,WeatherDisplay:10.37,2013-04-16 04:19:00,
2013-04-16 00:24:00,63.7,55.2,30.15,North,0,0.0,0.0,74,0.00,CLR,FEW,0.00,WeatherDisplay:10.37,2013-04-16 04:24:00,
2013-04-16 00:29:00,63.5,55.1,30.15,North,0,0.0,0.0,74,0.00,CLR,FEW,0.00,WeatherDisplay:10.37,2013-04-16 04:29:00,
2013-04-16 00:34:00,63.5,55.1,30.15,North,0,0.0,0.0,74,0.00,CLR,FEW,0.00,WeatherDisplay:10.37,2013-04-16 04:34:00,
2013-04-16 00:39:00,63.3,55.3,30.15,North,0,0.0,0.0,75,0.00,CLR,FEW,0.00,WeatherDisplay:10.37,2013-04-16 04:39:00,
2013-04-16 00:44:00,63.1,55.1,30.15,North,0,0.0,0.0,75,0.00,CLR,FEW,0.00,WeatherDisplay:10.37,2013-04-16 04:44:00,
2013-04-16 00:49:00,63.1,55.1,30.15,North,0,0.0,0.0,75,0.00,CLR,FEW,0.00,WeatherDisplay:10.37,2013-04-16 04:49:00,
2013-04-16 00:54:00,63.0,55.3,30.15,North,0,0.0,0.0,76,0.00,CLR,FEW,0.00,WeatherDisplay:10.37,2013-04-16 04:54:00,
2013-04-16 00:59:00,63.0,55.3,30.15,North,0,0.0,0.0,76,0.00,CLR,FEW,0.00,WeatherDisplay:10.37,2013-04-16 04:59:00,
2013-04-16 01:04:00,62.8,55.1,30.15,North,0,0.0,0.0,76,0.00,CLR,FEW,0.00,WeatherDisplay:10.37,2013-04-16 05:04:00,
2013-04-16 01:09:00,62.8,55.5,30.15,North,0,0.0,0.0,77,0.00,CLR,FEW,0.00,WeatherDisplay:10.37,2013-04-16 05:09:00,
2013-04-16 01:14:00,62.8,55.5,30.15,North,0,0.0,0.0,77,0.00,CLR,FEW,0.00,WeatherDisplay:10.37,2013-04-16 05:14:00,
2013-04-16 01:19:00,62.6,55.6,30.15,North,0,0.0,0.0,78,0.00,CLR,FEW,0.00,WeatherDisplay:10.37,2013-04-16 05:19:00,
2013-04-16 01:24:00,62.6,55.6,30.15,North,0,0.0,0.0,78,0.00,CLR,FEW,0.00,WeatherDisplay:10.37,2013-04-16 05:24:00,
2013-04-16 01:29:00,62.6,55.6,30.15,North,0,0.0,0.0,78,0.00,CLR,FEW,0.00,WeatherDisplay:10.37,2013-04-16 05:29:00,
2013-04-16 01:34:00,62.6,56.0,30.15,North,0,0.0,0.0,79,0.00,CLR,FEW,0.00,WeatherDisplay:10.37,2013-04-16 05:34:00,
2013-04-16 01:39:00,62.6,56.0,30.15,North,0,0.0,0.0,79,0.00,CLR,FEW,0.00,WeatherDisplay:10.37,2013-04-16 05:39:00,
2013-04-16 01:44:00,62.6,56.3,30.15,North,0,0.0,0.0,80,0.00,CLR,FEW,0.00,WeatherDisplay:10.37,2013-04-16 05:44:00,
2013-04-16 01:49:00,62.4,56.2,30.15,North,0,0.0,0.0,80,0.00,CLR,FEW,0.00,WeatherDisplay:10.37,2013-04-16 05:49:00,
2013-04-16 01:54:00,62.4,56.2,30.15,North,0,0.0,0.0,80,0.00,CLR,FEW,0.00,WeatherDisplay:10.37,2013-04-16 05:54:00,
2013-04-16 01:59:00,62.4,56.5,30.15,North,0,0.0,0.0,81,0.00,CLR,FEW,0.00,WeatherDisplay:10.37,2013-04-16 05:59:00,
2013-04-16 02:04:00,62.2,56.7,30.15,North,0,0.0,0.0,82,0.00,CLR,FEW,0.00,WeatherDisplay:10.37,2013-04-16 06:04:00,
2013-04-16 02:09:00,62.2,56.7,30.15,North,0,0.0,0.0,82,0.00,CLR,FEW,0.00,WeatherDisplay:10.37,2013-04-16 06:09:00,
2013-04-16 02:14:00,62.2,57.0,30.15,North,0,0.0,0.0,83,0.00,CLR,FEW,0.00,WeatherDisplay:10.37,2013-04-16 06:14:00,
2013-04-16 02:19:00,62.2,57.0,30.15,North,0,0.0,0.0,83,0.00,CLR,FEW,0.00,WeatherDisplay:10.37,2013-04-16 06:19:00,
2013-04-16 02:24:00,62.2,57.0,30.15,North,0,0.0,0.0,83,0.00,CLR,FEW,0.00,WeatherDisplay:10.37,2013-04-16 06:24:00,
2013-04-16 02:29:00,62.2,57.0,30.15,North,0,0.0,0.0,83,0.00,CLR,FEW,0.00,WeatherDisplay:10.37,2013-04-16 06:29:00,
2013-04-16 02:34:00,62.1,56.8,30.15,North,0,0.0,0.0,83,0.00,CLR,FEW,0.00,WeatherDisplay:10.37,2013-04-16 06:34:00,
2013-04-16 02:39:00,62.1,56.8,30.15,North,0,0.0,0.0,83,0.00,CLR,FEW,0.00,WeatherDisplay:10.37,2013-04-16 06:39:00,
2013-04-16 02:44:00,61.9,57.0,30.15,North,0,0.0,0.0,84,0.00,CLR,FEW,0.00,WeatherDisplay:10.37,2013-04-16 06:44:00,
2013-04-16 02:49:00,61.9,57.0,30.15,North,0,0.0,0.0,84,0.00,CLR,FEW,0.00,WeatherDisplay:10.37,2013-04-16 06:49:00,
2013-04-16 02:54:00,61.9,57.0,30.15,North,0,0.0,0.0,84,0.00,CLR,FEW,0.00,WeatherDisplay:10.37,2013-04-16 06:54:00,
2013-04-16 02:59:00,61.7,57.1,30.15,North,0,0.0,0.0,85,0.00,CLR,FEW,0.00,WeatherDisplay:10.37,2013-04-16 06:59:00,
2013-04-16 03:04:00,61.7,57.1,30.15,North,0,0.0,0.0,85,0.00,CLR,FEW,0.00,WeatherDisplay:10.37,2013-04-16 07:04:00,
2013-04-16 03:09:00,61.7,57.1,30.15,North,0,0.0,0.0,85,0.00,CLR,FEW,0.00,WeatherDisplay:10.37,2013-04-16 07:09:00,
2013-04-16 03:14:00,61.7,57.1,30.15,North,0,0.0,0.0,85,0.00,CLR,FEW,0.00,WeatherDisplay:10.37,2013-04-16 07:14:00,
2013-04-16 03:19:00,61.5,57.0,30.15,North,0,0.0,0.0,85,0.00,CLR,FEW,0.00,WeatherDisplay:10.37,2013-04-16 07:19:00,
2013-04-16 03:24:00,61.5,57.3,30.15,North,0,0.0,0.0,86,0.00,CLR,FEW,0.00,WeatherDisplay:10.37,2013-04-16 07:24:00,
2013-04-16 03:29:00,61.3,57.1,30.15,North,0,0.0,0.0,86,0.00,CLR,FEW,0.00,WeatherDisplay:10.37,2013-04-16 07:29:00,
2013-04-16 03:34:00,61.2,56.9,30.15,North,0,0.0,0.0,86,0.00,CLR,FEW,0.00,WeatherDisplay:10.37,2013-04-16 07:34:00,
2013-04-16 03:39:00,61.0,56.8,30.15,North,0,0.0,0.0,86,0.00,CLR,FEW,0.00,WeatherDisplay:10.37,2013-04-16 07:39:00,
2013-04-16 03:44:00,60.8,56.6,30.15,North,0,0.0,0.0,86,0.00,CLR,FEW,0.00,WeatherDisplay:10.37,2013-04-16 07:44:00,
2013-04-16 03:49:00,60.6,56.7,30.15,North,0,0.0,0.0,87,0.00,CLR,FEW,0.00,WeatherDisplay:10.37,2013-04-16 07:49:00,
2013-04-16 03:54:00,60.6,56.7,30.15,North,0,0.0,0.0,87,0.00,CLR,FEW,0.00,WeatherDisplay:10.37,2013-04-16 07:54:00,
2013-04-16 03:59:00,60.6,57.0,30.15,North,0,0.0,0.0,88,0.00,CLR,FEW,0.00,WeatherDisplay:10.37,2013-04-16 07:59:00,
2013-04-16 04:04:00,60.6,57.4,30.15,North,0,0.0,0.0,89,0.00,CLR,FEW,0.00,WeatherDisplay:10.37,2013-04-16 08:04:00,
2013-04-16 04:09:00,60.6,57.4,30.15,North,0,0.0,0.0,89,0.00,CLR,FEW,0.00,WeatherDisplay:10.37,2013-04-16 08:09:00,
2013-04-16 04:14:00,60.6,57.4,30.15,North,0,0.0,0.0,89,0.00,CLR,FEW,0.00,WeatherDisplay:10.37,2013-04-16 08:14:00,
2013-04-16 04:19:00,60.6,57.7,30.15,North,0,0.0,0.0,90,0.00,CLR,FEW,0.00,WeatherDisplay:10.37,2013-04-16 08:19:00,
2013-04-16 04:24:00,60.6,57.7,30.15,North,0,0.0,0.0,90,0.00,CLR,FEW,0.00,WeatherDisplay:10.37,2013-04-16 08:24:00,
2013-04-16 04:29:00,60.6,57.7,30.15,North,0,0.0,0.0,90,0.00,CLR,FEW,0.00,WeatherDisplay:10.37,2013-04-16 08:29:00,
2013-04-16 04:34:00,60.6,57.7,30.15,North,0,0.0,0.0,90,0.00,CLR,FEW,0.00,WeatherDisplay:10.37,2013-04-16 08:34:00,
2013-04-16 04:39:00,60.4,57.8,30.15,North,0,0.0,0.0,91,0.00,CLR,FEW,0.00,WeatherDisplay:10.37,2013-04-16 08:39:00,
2013-04-16 04:44:00,60.4,57.8,30.15,North,0,0.0,0.0,91,0.00,CLR,FEW,0.00,WeatherDisplay:10.37,2013-04-16 08:44:00,
2013-04-16 04:49:00,60.4,57.8,30.15,North,0,0.0,0.0,91,0.00,CLR,FEW,0.00,WeatherDisplay:10.37,2013-04-16 08:49:00,
2013-04-16 04:54:00,60.4,58.1,30.15,North,0,0.0,0.0,92,0.00,CLR,FEW,0.00,WeatherDisplay:10.37,2013-04-16 08:54:00,
2013-04-16 04:59:00,60.4,58.1,30.18,North,0,0.0,0.0,92,0.00,CLR,FEW,0.00,WeatherDisplay:10.37,2013-04-16 08:59:00,
2013-04-16 05:04:00,60.4,58.1,30.18,North,0,0.0,0.0,92,0.00,CLR,FEW,0.00,WeatherDisplay:10.37,2013-04-16 09:04:00,
2013-04-16 05:09:00,60.4,58.1,30.18,North,0,0.0,0.0,92,0.00,CLR,FEW,0.00,WeatherDisplay:10.37,2013-04-16 09:09:00,
2013-04-16 05:14:00,60.4,58.4,30.18,North,0,0.0,0.0,93,0.00,CLR,FEW,0.00,WeatherDisplay:10.37,2013-04-16 09:14:00,
2013-04-16 05:19:00,60.3,58.2,30.18,North,0,0.0,0.0,93,0.00,CLR,FEW,0.00,WeatherDisplay:10.37,2013-04-16 09:19:00,
2013-04-16 05:24:00,60.3,58.2,30.18,North,0,0.0,0.0,93,0.00,CLR,FEW,0.00,WeatherDisplay:10.37,2013-04-16 09:24:00,
2013-04-16 05:29:00,60.3,58.2,30.18,North,0,0.0,0.0,93,0.00,CLR,FEW,0.00,WeatherDisplay:10.37,2013-04-16 09:29:00,
2013-04-16 05:34:00,60.1,58.0,30.18,North,0,0.0,0.0,93,0.00,CLR,FEW,0.00,WeatherDisplay:10.37,2013-04-16 09:34:00,
2013-04-16 05:39:00,60.1,58.0,30.18,North,0,0.0,0.0,93,0.00,CLR,FEW,0.00,WeatherDisplay:10.37,2013-04-16 09:39:00,
2013-04-16 05:44:00,60.1,58.0,30.18,North,0,0.0,0.0,93,0.00,CLR,FEW,0.00,WeatherDisplay:10.37,2013-04-16 09:44:00,
2013-04-16 05:49:00,59.9,57.9,30.18,North,0,0.0,0.0,93,0.00,CLR,FEW,0.00,WeatherDisplay:10.37,2013-04-16 09:49:00,
2013-04-16 05:54:00,59.9,57.9,30.18,North,0,0.0,0.0,93,0.00,CLR,FEW,0.00,WeatherDisplay:10.37,2013-04-16 09:54:00,
2013-04-16 05:59:00,59.9,57.9,30.18,North,0,0.0,0.0,93,0.00,CLR,FEW,0.00,WeatherDisplay:10.37,2013-04-16 09:59:00,
2013-04-16 06:04:00,59.9,58.2,30.18,North,0,0.0,0.0,94,0.00,CLR,FEW,0.00,WeatherDisplay:10.37,2013-04-16 10:04:00,
2013-04-16 06:09:00,59.7,58.0,30.18,North,0,0.0,0.0,94,0.00,CLR,FEW,0.00,WeatherDisplay:10.37,2013-04-16 10:09:00,
2013-04-16 06:14:00,59.7,58.0,30.18,North,0,0.0,0.0,94,0.00,CLR,FEW,0.00,WeatherDisplay:10.37,2013-04-16 10:14:00,
2013-04-16 06:19:00,59.7,58.0,30.18,North,0,0.0,0.0,94,0.00,CLR,FEW,0.00,WeatherDisplay:10.37,2013-04-16 10:19:00,
2013-04-16 06:24:00,59.7,58.0,30.18,North,0,0.0,0.0,94,0.00,CLR,FEW,0.00,WeatherDisplay:10.37,2013-04-16 10:24:00,
2013-04-16 06:29:00,59.7,58.0,30.18,North,0,0.0,0.0,94,0.00,CLR,FEW,0.00,WeatherDisplay:10.37,2013-04-16 10:29:00,
2013-04-16 06:34:00,59.7,58.0,30.18,North,0,0.0,0.0,94,0.00,CLR,FEW,0.00,WeatherDisplay:10.37,2013-04-16 10:34:00,
2013-04-16 06:39:00,59.5,57.8,30.18,North,0,0.0,0.0,94,0.00,CLR,FEW,0.00,WeatherDisplay:10.37,2013-04-16 10:39:00,
2013-04-16 06:44:00,59.7,58.0,30.18,North,0,0.0,0.0,94,0.00,CLR,FEW,0.00,WeatherDisplay:10.37,2013-04-16 10:44:00,
2013-04-16 06:49:00,59.5,58.1,30.18,North,0,0.0,0.0,95,0.00,CLR,FEW,0.00,WeatherDisplay:10.37,2013-04-16 10:49:00,
2013-04-16 06:54:00,59.5,58.1,30.18,North,0,0.0,0.0,95,0.00,CLR,FEW,0.00,WeatherDisplay:10.37,2013-04-16 10:54:00,
2013-04-16 06:59:00,59.5,58.1,30.21,North,0,0.0,0.0,95,0.00,CLR,FEW,0.00,WeatherDisplay:10.37,2013-04-16 10:59:00,
2013-04-16 07:04:00,59.5,58.1,30.21,North,0,0.0,0.0,95,0.00,CLR,FEW,0.00,WeatherDisplay:10.37,2013-04-16 11:04:00,
2013-04-16 07:09:00,59.5,58.1,30.21,North,0,0.0,0.0,95,0.00,CLR,FEW,0.00,WeatherDisplay:10.37,2013-04-16 11:09:00,
2013-04-16 07:14:00,59.7,58.3,30.21,North,0,0.0,0.0,95,0.00,CLR,FEW,0.00,WeatherDisplay:10.37,2013-04-16 11:14:00,
2013-04-16 07:19:00,59.7,58.3,30.21,North,0,0.0,0.0,95,0.00,CLR,FEW,0.00,WeatherDisplay:10.37,2013-04-16 11:19:00,
2013-04-16 07:24:00,59.9,58.5,30.21,North,0,0.0,0.0,95,0.00,CLR,FEW,0.00,WeatherDisplay:10.37,2013-04-16 11:24:00,
2013-04-16 07:29:00,60.1,58.6,30.21,North,0,0.0,0.0,95,0.00,CLR,FEW,0.00,WeatherDisplay:10.37,2013-04-16 11:29:00,
2013-04-16 07:34:00,60.1,58.9,30.21,North,0,0.0,0.0,96,0.00,CLR,FEW,0.00,WeatherDisplay:10.37,2013-04-16 11:34:00,
2013-04-16 07:39:00,60.3,59.1,30.21,North,0,0.0,0.0,96,0.00,CLR,FEW,0.00,WeatherDisplay:10.37,2013-04-16 11:39:00,
2013-04-16 07:44:00,60.4,59.3,30.21,North,0,0.0,0.0,96,0.00,CLR,FEW,0.00,WeatherDisplay:10.37,2013-04-16 11:44:00,
2013-04-16 07:49:00,60.6,59.5,30.21,North,0,0.0,0.0,96,0.00,CLR,FEW,0.00,WeatherDisplay:10.37,2013-04-16 11:49:00,
2013-04-16 07:54:00,61.0,59.8,30.21,North,0,0.0,0.0,96,0.00,CLR,FEW,0.00,WeatherDisplay:10.37,2013-04-16 11:54:00,
2013-04-16 07:59:00,61.7,60.5,30.21,North,0,0.0,0.0,96,0.00,CLR,FEW,0.00,WeatherDisplay:10.37,2013-04-16 11:59:00,
2013-04-16 08:04:00,62.4,61.3,30.21,North,0,0.0,0.0,96,0.00,CLR,FEW,0.00,WeatherDisplay:10.37,2013-04-16 12:04:00,
2013-04-16 08:09:00,62.8,61.6,30.21,North,0,0.0,0.0,96,0.00,CLR,FEW,0.00,WeatherDisplay:10.37,2013-04-16 12:09:00,
2013-04-16 08:14:00,63.7,62.5,30.21,North,0,0.0,0.0,96,0.00,CLR,FEW,0.00,WeatherDisplay:10.37,2013-04-16 12:14:00,
2013-04-16 08:19:00,64.6,63.4,30.21,North,0,0.0,0.0,96,0.00,CLR,FEW,0.00,WeatherDisplay:10.37,2013-04-16 12:19:00,
2013-04-16 08:24:00,65.1,64.0,30.21,North,0,0.0,0.0,96,0.00,CLR,FEW,0.00,WeatherDisplay:10.37,2013-04-16 12:24:00,
2013-04-16 08:29:00,66.2,65.0,30.21,North,0,0.0,0.0,96,0.00,CLR,FEW,0.00,WeatherDisplay:10.37,2013-04-16 12:29:00,
2013-04-16 08:34:00,66.7,65.3,30.21,North,0,0.0,0.0,95,0.00,CLR,FEW,0.00,WeatherDisplay:10.37,2013-04-16 12:34:00,
2013-04-16 08:39:00,66.7,63.7,30.21,North,0,0.0,0.0,90,0.00,CLR,FEW,0.00,WeatherDisplay:10.37,2013-04-16 12:39:00,
2013-04-16 08:44:00,67.3,56.4,30.24,North,0,0.0,0.0,68,0.00,CLR,FEW,0.00,WeatherDisplay:10.37,2013-04-16 12:44:00,
2013-04-16 08:49:00,67.8,51.5,30.24,North,0,0.0,0.0,56,0.00,CLR,FEW,0.00,WeatherDisplay:10.37,2013-04-16 12:49:00,
2013-04-16 08:54:00,68.4,51.6,30.24,North,0,0.0,0.0,55,0.00,CLR,FEW,0.00,WeatherDisplay:10.37,2013-04-16 12:54:00,
2013-04-16 08:59:00,68.7,48.8,30.24,North,0,0.0,0.0,49,0.00,CLR,FEW,0.00,WeatherDisplay:10.37,2013-04-16 12:59:00,
2013-04-16 09:04:00,68.9,48.4,30.24,North,0,0.0,0.0,48,0.00,CLR,FEW,0.00,WeatherDisplay:10.37,2013-04-16 13:04:00,
2013-04-16 09:09:00,69.1,49.1,30.24,North,0,0.0,0.0,49,0.00,CLR,FEW,0.00,WeatherDisplay:10.37,2013-04-16 13:09:00,
2013-04-16 09:14:00,69.3,48.7,30.24,North,0,0.0,0.0,48,0.00,CLR,FEW,0.00,WeatherDisplay:10.37,2013-04-16 13:14:00,
2013-04-16 09:19:00,69.4,48.3,30.24,North,0,0.0,0.0,47,0.00,CLR,FEW,0.00,WeatherDisplay:10.37,2013-04-16 13:19:00,
2013-04-16 09:24:00,69.6,49.1,30.24,North,0,0.0,0.0,48,0.00,CLR,FEW,0.00,WeatherDisplay:10.37,2013-04-16 13:24:00,
2013-04-16 09:29:00,69.4,47.8,30.24,North,0,0.0,0.0,46,0.00,CLR,FEW,0.00,WeatherDisplay:10.37,2013-04-16 13:29:00,
2013-04-16 09:34:00,69.6,49.1,30.24,North,0,0.0,0.0,48,0.00,CLR,FEW,0.00,WeatherDisplay:10.37,2013-04-16 13:34:00,
2013-04-16 09:39:00,69.3,47.6,30.24,North,0,0.0,0.0,46,0.00,CLR,FEW,0.00,WeatherDisplay:10.37,2013-04-16 13:39:00,
2013-04-16 09:44:00,69.3,48.2,30.24,North,0,0.0,0.0,47,0.00,CLR,FEW,0.00,WeatherDisplay:10.37,2013-04-16 13:44:00,
2013-04-16 09:49:00,68.9,47.8,30.24,North,0,0.0,0.0,47,0.00,CLR,FEW,0.00,WeatherDisplay:10.37,2013-04-16 13:49:00,
2013-04-16 09:54:00,69.1,48.6,30.24,North,0,0.0,0.0,48,0.00,CLR,FEW,0.00,WeatherDisplay:10.37,2013-04-16 13:54:00,
2013-04-16 09:59:00,69.3,48.7,30.24,North,0,0.0,0.0,48,0.00,CLR,FEW,0.00,WeatherDisplay:10.37,2013-04-16 13:59:00,
2013-04-16 10:04:00,69.3,49.3,30.24,North,0,0.0,0.0,49,0.00,CLR,FEW,0.00,WeatherDisplay:10.37,2013-04-16 14:04:00,
2013-04-16 10:09:00,69.6,49.6,30.24,North,0,0.0,0.0,49,0.00,CLR,FEW,0.00,WeatherDisplay:10.37,2013-04-16 14:09:00,
2013-04-16 10:14:00,69.8,48.1,30.24,North,0,0.0,0.0,46,0.00,CLR,FEW,0.00,WeatherDisplay:10.37,2013-04-16 14:14:00,
2013-04-16 10:19:00,69.4,48.9,30.24,North,0,0.0,0.0,48,0.00,CLR,FEW,0.00,WeatherDisplay:10.37,2013-04-16 14:19:00,
2013-04-16 10:24:00,69.4,48.3,30.24,North,0,0.0,0.0,47,0.00,CLR,FEW,0.00,WeatherDisplay:10.37,2013-04-16 14:24:00,
2013-04-16 10:29:00,69.4,48.3,30.24,North,0,0.0,0.0,47,0.00,CLR,FEW,0.00,WeatherDisplay:10.37,2013-04-16 14:29:00,
2013-04-16 10:34:00,69.4,48.3,30.24,North,0,0.0,0.0,47,0.00,CLR,FEW,0.00,WeatherDisplay:10.37,2013-04-16 14:34:00,
2013-04-16 10:39:00,69.8,48.1,30.24,North,0,0.0,0.0,46,0.00,CLR,FEW,0.00,WeatherDisplay:10.37,2013-04-16 14:39:00,
2013-04-16 10:44:00,69.6,47.3,30.24,North,0,0.0,0.0,45,0.00,CLR,FEW,0.00,WeatherDisplay:10.37,2013-04-16 14:44:00,
2013-04-16 10:49:00,69.1,49.7,30.24,North,0,0.0,0.0,50,0.00,CLR,FEW,0.00,WeatherDisplay:10.37,2013-04-16 14:49:00,
2013-04-16 10:54:00,69.1,48.6,30.24,North,0,0.0,0.0,48,0.00,CLR,FEW,0.00,WeatherDisplay:10.37,2013-04-16 14:54:00,
2013-04-16 10:59:00,69.4,49.4,30.24,North,0,0.0,0.0,49,0.00,CLR,FEW,0.00,WeatherDisplay:10.37,2013-04-16 14:59:00,
2013-04-16 11:04:00,69.1,48.0,30.24,North,0,0.0,0.0,47,0.00,CLR,FEW,0.00,WeatherDisplay:10.37,2013-04-16 15:04:00,
2013-04-16 11:09:00,68.9,48.4,30.24,North,0,0.0,0.0,48,0.00,CLR,FEW,0.00,WeatherDisplay:10.37,2013-04-16 15:09:00,
2013-04-16 11:14:00,69.1,49.1,30.24,North,0,0.0,0.0,49,0.00,CLR,FEW,0.00,WeatherDisplay:10.37,2013-04-16 15:14:00,
2013-04-16 11:19:00,69.1,49.1,30.24,North,0,0.0,0.0,49,0.00,CLR,FEW,0.00,WeatherDisplay:10.37,2013-04-16 15:19:00,
2013-04-16 11:24:00,69.1,48.6,30.24,North,0,0.0,0.0,48,0.00,CLR,FEW,0.00,WeatherDisplay:10.37,2013-04-16 15:24:00,
2013-04-16 11:29:00,68.9,48.9,30.24,North,0,0.0,0.0,49,0.00,CLR,FEW,0.00,WeatherDisplay:10.37,2013-04-16 15:29:00,
2013-04-16 11:34:00,69.3,49.8,30.24,North,0,0.0,0.0,50,0.00,CLR,FEW,0.00,WeatherDisplay:10.37,2013-04-16 15:34:00,
2013-04-16 11:39:00,69.1,49.1,30.24,North,0,0.0,0.0,49,0.00,CLR,FEW,0.00,WeatherDisplay:10.37,2013-04-16 15:39:00,
2013-04-16 11:44:00,68.7,49.3,30.24,North,0,0.0,0.0,50,0.00,CLR,FEW,0.00,WeatherDisplay:10.37,2013-04-16 15:44:00,
2013-04-16 11:49:00,68.5,50.2,30.27,North,0,0.0,0.0,52,0.00,CLR,FEW,0.00,WeatherDisplay:10.37,2013-04-16 15:49:00,
2013-04-16 11:54:00,68.5,49.7,30.27,North,0,0.0,0.0,51,0.00,CLR,FEW,0.00,WeatherDisplay:10.37,2013-04-16 15:54:00,
2013-04-16 11:59:00,68.2,49.9,30.24,North,0,0.0,0.0,52,0.00,CLR,FEW,0.00,WeatherDisplay:10.37,2013-04-16 15:59:00,
2013-04-16 12:04:00,68.2,50.9,30.24,North,0,0.0,0.0,54,0.00,CLR,FEW,0.00,WeatherDisplay:10.37,2013-04-16 16:04:00,
2013-04-16 12:09:00,68.5,51.7,30.24,North,0,0.0,0.0,55,0.00,CLR,FEW,0.00,WeatherDisplay:10.37,2013-04-16 16:09:00,
2013-04-16 12:14:00,68.7,50.4,30.24,North,0,0.0,0.0,52,0.00,CLR,FEW,0.00,WeatherDisplay:10.37,2013-04-16 16:14:00,
2013-04-16 12:19:00,68.7,50.9,30.24,North,0,0.0,0.0,53,0.00,CLR,FEW,0.00,WeatherDisplay:10.37,2013-04-16 16:19:00,
2013-04-16 12:24:00,68.9,50.5,30.24,North,0,0.0,0.0,52,0.00,CLR,FEW,0.00,WeatherDisplay:10.37,2013-04-16 16:24:00,
2013-04-16 12:29:00,68.9,51.1,30.24,North,0,0.0,0.0,53,0.00,CLR,FEW,0.00,WeatherDisplay:10.37,2013-04-16 16:29:00,
2013-04-16 12:34:00,68.0,51.2,30.24,North,0,0.0,0.0,55,0.00,CLR,FEW,0.00,WeatherDisplay:10.37,2013-04-16 16:34:00,
2013-04-16 12:40:00,67.8,53.0,30.24,North,0,0.0,0.0,59,0.00,CLR,FEW,0.00,WeatherDisplay:10.37,2013-04-16 16:40:00,
2013-04-16 12:45:00,67.8,53.0,30.24,North,0,0.0,0.0,59,0.00,CLR,FEW,0.00,WeatherDisplay:10.37,2013-04-16 16:45:00,
2013-04-16 12:51:00,68.0,53.6,30.24,North,0,0.0,0.0,60,0.00,CLR,FEW,0.00,WeatherDisplay:10.37,2013-04-16 16:51:00,
2013-04-16 12:56:00,68.5,54.6,30.24,North,0,0.0,0.0,61,0.00,CLR,FEW,0.00,WeatherDisplay:10.37,2013-04-16 16:56:00,
2013-04-16 13:01:00,69.1,54.6,30.24,North,0,0.0,0.0,60,0.00,CLR,FEW,0.00,WeatherDisplay:10.37,2013-04-16 17:01:00,
2013-04-16 13:06:00,69.3,52.4,30.24,North,0,0.0,0.0,55,0.00,CLR,FEW,0.00,WeatherDisplay:10.37,2013-04-16 17:06:00,
2013-04-16 13:11:00,69.3,52.4,30.24,North,0,0.0,0.0,55,0.00,CLR,FEW,0.00,WeatherDisplay:10.37,2013-04-16 17:11:00,
2013-04-16 13:16:00,69.1,52.2,30.24,North,0,0.0,0.0,55,0.00,CLR,FEW,0.00,WeatherDisplay:10.37,2013-04-16 17:16:00,
2013-04-16 13:21:00,69.3,53.8,30.24,North,0,0.0,0.0,58,0.00,CLR,FEW,0.00,WeatherDisplay:10.37,2013-04-16 17:21:00,
2013-04-16 13:27:00,70.2,53.7,30.24,North,0,0.0,0.0,56,0.00,CLR,FEW,0.00,WeatherDisplay:10.37,2013-04-16 17:27:00,
2013-04-16 13:32:00,70.7,52.7,30.24,North,0,0.0,0.0,53,0.00,CLR,FEW,0.00,WeatherDisplay:10.37,2013-04-16 17:32:00,
2013-04-16 13:37:00,71.1,52.5,30.24,North,0,0.0,0.0,52,0.00,CLR,FEW,0.00,WeatherDisplay:10.37,2013-04-16 17:37:00,
2013-04-16 13:42:00,70.9,50.2,30.24,North,0,0.0,0.0,48,0.00,CLR,FEW,0.00,WeatherDisplay:10.37,2013-04-16 17:42:00,
2013-04-16 13:47:00,70.9,51.8,30.24,North,0,0.0,0.0,51,0.00,CLR,FEW,0.00,WeatherDisplay:10.37,2013-04-16 17:47:00,
2013-04-16 13:52:00,70.5,50.4,30.24,North,0,0.0,0.0,49,0.00,CLR,FEW,0.00,WeatherDisplay:10.37,2013-04-16 17:52:00,
2013-04-16 13:57:00,70.3,51.9,30.24,North,0,0.0,0.0,52,0.00,CLR,FEW,0.00,WeatherDisplay:10.37,2013-04-16 17:57:00,
2013-04-16 14:02:00,70.2,52.2,30.24,North,0,0.0,0.0,53,0.00,CLR,FEW,0.00,WeatherDisplay:10.37,2013-04-16 18:02:00,
2013-04-16 14:07:00,70.3,52.9,30.24,North,0,0.0,0.0,54,0.00,CLR,FEW,0.00,WeatherDisplay:10.37,2013-04-16 18:07:00,
2013-04-16 14:12:00,71.1,52.5,30.24,North,0,0.0,0.0,52,0.00,CLR,FEW,0.00,WeatherDisplay:10.37,2013-04-16 18:12:00,
2013-04-16 14:17:00,70.2,52.2,30.24,North,0,0.0,0.0,53,0.00,CLR,FEW,0.00,WeatherDisplay:10.37,2013-04-16 18:17:00,
2013-04-16 14:22:00,69.8,53.4,30.24,North,0,0.0,0.0,56,0.00,CLR,FEW,0.00,WeatherDisplay:10.37,2013-04-16 18:22:00,
2013-04-16 14:27:00,70.0,53.1,30.24,North,0,0.0,0.0,55,0.00,CLR,FEW,0.00,WeatherDisplay:10.37,2013-04-16 18:27:00,
2013-04-16 14:32:00,69.4,53.5,30.24,North,0,0.0,0.0,57,0.00,CLR,FEW,0.00,WeatherDisplay:10.37,2013-04-16 18:32:00,
2013-04-16 14:37:00,69.3,54.8,30.24,North,0,0.0,0.0,60,0.00,CLR,FEW,0.00,WeatherDisplay:10.37,2013-04-16 18:37:00,
2013-04-16 14:42:00,69.6,54.2,30.24,North,0,0.0,0.0,58,0.00,CLR,FEW,0.00,WeatherDisplay:10.37,2013-04-16 18:42:00,
2013-04-16 14:47:00,69.8,54.4,30.24,North,0,0.0,0.0,58,0.00,CLR,FEW,0.00,WeatherDisplay:10.37,2013-04-16 18:47:00,
2013-04-16 14:52:00,70.2,53.2,30.24,North,0,0.0,0.0,55,0.00,CLR,FEW,0.00,WeatherDisplay:10.37,2013-04-16 18:52:00,
2013-04-16 14:57:00,70.2,52.7,30.24,North,0,0.0,0.0,54,0.00,CLR,FEW,0.00,WeatherDisplay:10.37,2013-04-16 18:57:00,
2013-04-16 15:02:00,70.0,53.6,30.24,North,0,0.0,0.0,56,0.00,CLR,FEW,0.00,WeatherDisplay:10.37,2013-04-16 19:02:00,
2013-04-16 15:07:00,70.2,53.7,30.24,North,0,0.0,0.0,56,0.00,CLR,FEW,0.00,WeatherDisplay:10.37,2013-04-16 19:07:00,
2013-04-16 15:12:00,70.5,53.1,30.24,North,0,0.0,0.0,54,0.00,CLR,FEW,0.00,WeatherDisplay:10.37,2013-04-16 19:12:00,
2013-04-16 15:17:00,70.5,52.0,30.21,North,0,0.0,0.0,52,0.00,CLR,FEW,0.00,WeatherDisplay:10.37,2013-04-16 19:17:00,
2013-04-16 15:22:00,70.3,51.9,30.21,North,0,0.0,0.0,52,0.00,CLR,FEW,0.00,WeatherDisplay:10.37,2013-04-16 19:22:00,
2013-04-16 15:27:00,69.8,52.9,30.21,North,0,0.0,0.0,55,0.00,CLR,FEW,0.00,WeatherDisplay:10.37,2013-04-16 19:27:00,
2013-04-16 15:32:00,70.0,54.0,30.21,North,0,0.0,0.0,57,0.00,CLR,FEW,0.00,WeatherDisplay:10.37,2013-04-16 19:32:00,
2013-04-16 15:37:00,70.7,54.2,30.21,North,0,0.0,0.0,56,0.00,CLR,FEW,0.00,WeatherDisplay:10.37,2013-04-16 19:37:00,
2013-04-16 15:42:00,71.2,53.2,30.21,North,0,0.0,0.0,53,0.00,CLR,FEW,0.00,WeatherDisplay:10.37,2013-04-16 19:42:00,
2013-04-16 15:47:00,71.2,51.6,30.21,North,0,0.0,0.0,50,0.00,CLR,FEW,0.00,WeatherDisplay:10.37,2013-04-16 19:47:00,
2013-04-16 15:52:00,70.9,52.4,30.21,North,0,0.0,0.0,52,0.00,CLR,FEW,0.00,WeatherDisplay:10.37,2013-04-16 19:52:00,
2013-04-16 15:57:00,70.3,52.4,30.21,North,0,0.0,0.0,53,0.00,CLR,FEW,0.00,WeatherDisplay:10.37,2013-04-16 19:57:00,
2013-04-16 16:02:00,70.7,54.2,30.21,North,0,0.0,0.0,56,0.00,CLR,FEW,0.00,WeatherDisplay:10.37,2013-04-16 20:02:00,
2013-04-16 16:07:00,70.9,52.4,30.21,North,0,0.0,0.0,52,0.00,CLR,FEW,0.00,WeatherDisplay:10.37,2013-04-16 20:07:00,
2013-04-16 16:12:00,71.1,54.1,30.21,North,0,0.0,0.0,55,0.00,CLR,FEW,0.00,WeatherDisplay:10.37,2013-04-16 20:12:00,
2013-04-16 16:17:00,71.1,51.5,30.21,North,0,0.0,0.0,50,0.00,CLR,FEW,0.00,WeatherDisplay:10.37,2013-04-16 20:17:00,
2013-04-16 16:22:00,70.2,52.7,30.21,North,0,0.0,0.0,54,0.00,CLR,FEW,0.00,WeatherDisplay:10.37,2013-04-16 20:22:00,
2013-04-16 16:27:00,70.0,53.6,30.21,North,0,0.0,0.0,56,0.00,CLR,FEW,0.00,WeatherDisplay:10.37,2013-04-16 20:27:00,
2013-04-16 16:32:00,70.0,52.6,30.21,North,0,0.0,0.0,54,0.00,CLR,FEW,0.00,WeatherDisplay:10.37,2013-04-16 20:32:00,
2013-04-16 16:37:00,70.2,53.2,30.21,North,0,0.0,0.0,55,0.00,CLR,FEW,0.00,WeatherDisplay:10.37,2013-04-16 20:37:00,
2013-04-16 16:42:00,70.5,51.0,30.21,North,0,0.0,0.0,50,0.00,CLR,FEW,0.00,WeatherDisplay:10.37,2013-04-16 20:42:00,
2013-04-16 16:47:00,70.5,52.0,30.21,North,0,0.0,0.0,52,0.00,CLR,FEW,0.00,WeatherDisplay:10.37,2013-04-16 20:47:00,
2013-04-16 16:52:00,70.5,52.0,30.21,North,0,0.0,0.0,52,0.00,CLR,FEW,0.00,WeatherDisplay:10.37,2013-04-16 20:52:00,
2013-04-16 16:57:00,70.5,52.6,30.21,North,0,0.0,0.0,53,0.00,CLR,FEW,0.00,WeatherDisplay:10.37,2013-04-16 20:57:00,
2013-04-16 17:02:00,70.5,52.0,30.21,North,0,0.0,0.0,52,0.00,CLR,FEW,0.00,WeatherDisplay:10.37,2013-04-16 21:02:00,
2013-04-16 17:07:00,70.2,52.2,30.21,North,0,0.0,0.0,53,0.00,CLR,FEW,0.00,WeatherDisplay:10.37,2013-04-16 21:07:00,
2013-04-16 17:12:00,70.0,52.6,30.21,North,0,0.0,0.0,54,0.00,CLR,FEW,0.00,WeatherDisplay:10.37,2013-04-16 21:12:00,
2013-04-16 17:17:00,70.0,53.1,30.21,North,0,0.0,0.0,55,0.00,CLR,FEW,0.00,WeatherDisplay:10.37,2013-04-16 21:17:00,
2013-04-16 17:22:00,70.0,52.6,30.21,North,0,0.0,0.0,54,0.00,CLR,FEW,0.00,WeatherDisplay:10.37,2013-04-16 21:22:00,
2013-04-16 17:27:00,70.2,52.7,30.21,North,0,0.0,0.0,54,0.00,CLR,FEW,0.00,WeatherDisplay:10.37,2013-04-16 21:27:00,
2013-04-16 17:32:00,70.3,52.9,30.21,North,0,0.0,0.0,54,0.00,CLR,FEW,0.00,WeatherDisplay:10.37,2013-04-16 21:32:00,
2013-04-16 17:37:00,70.3,52.4,30.21,North,0,0.0,0.0,53,0.00,CLR,FEW,0.00,WeatherDisplay:10.37,2013-04-16 21:37:00,
2013-04-16 17:42:00,70.0,53.1,30.21,North,0,0.0,0.0,55,0.00,CLR,FEW,0.00,WeatherDisplay:10.37,2013-04-16 21:42:00,
2013-04-16 17:47:00,69.6,53.2,30.21,North,0,0.0,0.0,56,0.00,CLR,FEW,0.00,WeatherDisplay:10.37,2013-04-16 21:47:00,
2013-04-16 17:52:00,69.4,53.5,30.21,North,0,0.0,0.0,57,0.00,CLR,FEW,0.00,WeatherDisplay:10.37,2013-04-16 21:52:00,
2013-04-16 17:57:00,69.4,54.9,30.21,North,0,0.0,0.0,60,0.00,CLR,FEW,0.00,WeatherDisplay:10.37,2013-04-16 21:57:00,
2013-04-16 18:02:00,69.3,54.8,30.21,North,0,0.0,0.0,60,0.00,CLR,FEW,0.00,WeatherDisplay:10.37,2013-04-16 22:02:00,
2013-04-16 18:07:00,68.9,54.4,30.21,North,0,0.0,0.0,60,0.00,CLR,FEW,0.00,WeatherDisplay:10.37,2013-04-16 22:07:00,
2013-04-16 18:12:00,68.4,55.3,30.21,North,0,0.0,0.0,63,0.00,CLR,FEW,0.00,WeatherDisplay:10.37,2013-04-16 22:12:00,
2013-04-16 18:17:00,68.2,56.0,30.21,North,0,0.0,0.0,65,0.00,CLR,FEW,0.00,WeatherDisplay:10.37,2013-04-16 22:17:00,
2013-04-16 18:22:00,68.0,56.2,30.21,North,0,0.0,0.0,66,0.00,CLR,FEW,0.00,WeatherDisplay:10.37,2013-04-16 22:22:00,
2013-04-16 18:27:00,68.0,56.6,30.21,North,0,0.0,0.0,67,0.00,CLR,FEW,0.00,WeatherDisplay:10.37,2013-04-16 22:27:00,
2013-04-16 18:32:00,68.2,56.8,30.21,North,0,0.0,0.0,67,0.00,CLR,FEW,0.00,WeatherDisplay:10.37,2013-04-16 22:32:00,
2013-04-16 18:37:00,68.2,56.4,30.21,North,0,0.0,0.0,66,0.00,CLR,FEW,0.00,WeatherDisplay:10.37,2013-04-16 22:37:00,
2013-04-16 18:42:00,68.2,56.4,30.21,North,0,0.0,0.0,66,0.00,CLR,FEW,0.00,WeatherDisplay:10.37,2013-04-16 22:42:00,
2013-04-16 18:47:00,68.2,56.4,30.21,North,0,0.0,0.0,66,0.00,CLR,FEW,0.00,WeatherDisplay:10.37,2013-04-16 22:47:00,
2013-04-16 18:52:00,68.2,56.4,30.21,North,0,0.0,0.0,66,0.00,CLR,FEW,0.00,WeatherDisplay:10.37,2013-04-16 22:52:00,
2013-04-16 18:57:00,68.2,56.4,30.21,North,0,0.0,0.0,66,0.00,CLR,FEW,0.00,WeatherDisplay:10.37,2013-04-16 22:57:00,
2013-04-16 19:02:00,68.2,56.0,30.21,North,0,0.0,0.0,65,0.00,CLR,FEW,0.00,WeatherDisplay:10.37,2013-04-16 23:02:00,
2013-04-16 19:07:00,68.2,56.4,30.21,North,0,0.0,0.0,66,0.00,CLR,FEW,0.00,WeatherDisplay:10.37,2013-04-16 23:07:00,
2013-04-16 19:12:00,68.0,56.2,30.21,North,0,0.0,0.0,66,0.00,CLR,FEW,0.00,WeatherDisplay:10.37,2013-04-16 23:12:00,
2013-04-16 19:17:00,67.8,56.5,30.21,North,0,0.0,0.0,67,0.00,CLR,FEW,0.00,WeatherDisplay:10.37,2013-04-16 23:17:00,
2013-04-16 19:22:00,67.6,56.7,30.21,North,0,0.0,0.0,68,0.00,CLR,FEW,0.00,WeatherDisplay:10.37,2013-04-16 23:22:00,
2013-04-16 19:27:00,67.6,57.1,30.21,North,0,0.0,0.0,69,0.00,CLR,FEW,0.00,WeatherDisplay:10.37,2013-04-16 23:27:00,
2013-04-16 19:32:00,67.5,56.9,30.21,North,0,0.0,0.0,69,0.00,CLR,FEW,0.00,WeatherDisplay:10.37,2013-04-16 23:32:00,
2013-04-16 19:37:00,67.5,57.3,30.21,North,0,0.0,0.0,70,0.00,CLR,FEW,0.00,WeatherDisplay:10.37,2013-04-16 23:37:00,
2013-04-16 19:42:00,67.3,57.2,30.21,North,0,0.0,0.0,70,0.00,CLR,FEW,0.00,WeatherDisplay:10.37,2013-04-16 23:42:00,
2013-04-16 19:47:00,67.3,57.6,30.21,North,0,0.0,0.0,71,0.00,CLR,FEW,0.00,WeatherDisplay:10.37,2013-04-16 23:47:00,
2013-04-16 19:52:00,67.1,57.4,30.21,North,0,0.0,0.0,71,0.00,CLR,FEW,0.00,WeatherDisplay:10.37,2013-04-16 23:52:00,
2013-04-16 19:57:00,66.9,57.2,30.21,North,0,0.0,0.0,71,0.00,CLR,FEW,0.00,WeatherDisplay:10.37,2013-04-16 23:57:00,
2013-04-16 20:02:00,66.9,57.2,30.21,North,0,0.0,0.0,71,0.00,CLR,FEW,0.00,WeatherDisplay:10.37,2013-04-17 00:02:00,
2013-04-16 20:07:00,66.7,57.4,30.21,North,0,0.0,0.0,72,0.00,CLR,FEW,0.00,WeatherDisplay:10.37,2013-04-17 00:07:00,
2013-04-16 20:12:00,66.6,57.3,30.21,North,0,0.0,0.0,72,0.00,CLR,FEW,0.00,WeatherDisplay:10.37,2013-04-17 00:12:00,
2013-04-16 20:17:00,66.6,57.3,30.21,North,0,0.0,0.0,72,0.00,CLR,FEW,0.00,WeatherDisplay:10.37,2013-04-17 00:17:00,
2013-04-16 20:22:00,66.4,57.1,30.21,North,0,0.0,0.0,72,0.00,CLR,FEW,0.00,WeatherDisplay:10.37,2013-04-17 00:22:00,
2013-04-16 20:27:00,66.4,57.5,30.21,North,0,0.0,0.0,73,0.00,CLR,FEW,0.00,WeatherDisplay:10.37,2013-04-17 00:27:00,
2013-04-16 20:32:00,66.2,57.3,30.21,North,0,0.0,0.0,73,0.00,CLR,FEW,0.00,WeatherDisplay:10.37,2013-04-17 00:32:00,
2013-04-16 20:37:00,66.2,57.7,30.21,North,0,0.0,0.0,74,0.00,CLR,FEW,0.00,WeatherDisplay:10.37,2013-04-17 00:37:00,
2013-04-16 20:42:00,66.0,57.5,30.21,North,0,0.0,0.0,74,0.00,CLR,FEW,0.00,WeatherDisplay:10.37,2013-04-17 00:42:00,
2013-04-16 20:47:00,66.0,57.9,30.21,North,0,0.0,0.0,75,0.00,CLR,FEW,0.00,WeatherDisplay:10.37,2013-04-17 00:47:00,
2013-04-16 20:52:00,65.8,57.7,30.21,North,0,0.0,0.0,75,0.00,CLR,FEW,0.00,WeatherDisplay:10.37,2013-04-17 00:52:00,
2013-04-16 20:57:00,65.7,57.5,30.21,North,0,0.0,0.0,75,0.00,CLR,FEW,0.00,WeatherDisplay:10.37,2013-04-17 00:57:00,
2013-04-16 21:02:00,65.7,57.9,30.21,North,0,0.0,0.0,76,0.00,CLR,FEW,0.00,WeatherDisplay:10.37,2013-04-17 01:02:00,
2013-04-16 21:07:00,65.7,58.3,30.21,North,0,0.0,0.0,77,0.00,CLR,FEW,0.00,WeatherDisplay:10.37,2013-04-17 01:07:00,
2013-04-16 21:12:00,65.5,58.1,30.21,North,0,0.0,0.0,77,0.00,CLR,FEW,0.00,WeatherDisplay:10.37,2013-04-17 01:12:00,
2013-04-16 21:17:00,65.5,58.4,30.21,North,0,0.0,0.0,78,0.00,CLR,FEW,0.00,WeatherDisplay:10.37,2013-04-17 01:17:00,
2013-04-16 21:22:00,65.5,58.4,30.21,North,0,0.0,0.0,78,0.00,CLR,FEW,0.00,WeatherDisplay:10.37,2013-04-17 01:22:00,
2013-04-16 21:27:00,65.3,58.6,30.21,North,0,0.0,0.0,79,0.00,CLR,FEW,0.00,WeatherDisplay:10.37,2013-04-17 01:27:00,
2013-04-16 21:32:00,65.3,58.6,30.21,North,0,0.0,0.0,79,0.00,CLR,FEW,0.00,WeatherDisplay:10.37,2013-04-17 01:32:00,
2013-04-16 21:37:00,65.1,58.4,30.21,North,0,0.0,0.0,79,0.00,CLR,FEW,0.00,WeatherDisplay:10.37,2013-04-17 01:37:00,
2013-04-16 21:42:00,65.1,58.8,30.21,North,0,0.0,0.0,80,0.00,CLR,FEW,0.00,WeatherDisplay:10.37,2013-04-17 01:42:00,
2013-04-16 21:47:00,65.1,58.8,30.24,North,0,0.0,0.0,80,0.00,CLR,FEW,0.00,WeatherDisplay:10.37,2013-04-17 01:47:00,
2013-04-16 21:52:00,65.1,59.1,30.24,North,0,0.0,0.0,81,0.00,CLR,FEW,0.00,WeatherDisplay:10.37,2013-04-17 01:52:00,
2013-04-16 21:57:00,65.1,59.1,30.24,North,0,0.0,0.0,81,0.00,CLR,FEW,0.00,WeatherDisplay:10.37,2013-04-17 01:57:00,
2013-04-16 22:02:00,64.9,59.0,30.24,North,0,0.0,0.0,81,0.00,CLR,FEW,0.00,WeatherDisplay:10.37,2013-04-17 02:02:00,
2013-04-16 22:07:00,64.9,59.3,30.24,North,0,0.0,0.0,82,0.00,CLR,FEW,0.00,WeatherDisplay:10.37,2013-04-17 02:07:00,
2013-04-16 22:12:00,64.8,59.1,30.24,North,0,0.0,0.0,82,0.00,CLR,FEW,0.00,WeatherDisplay:10.37,2013-04-17 02:12:00,
2013-04-16 22:17:00,64.8,59.1,30.21,North,0,0.0,0.0,82,0.00,CLR,FEW,0.00,WeatherDisplay:10.37,2013-04-17 02:17:00,
2013-04-16 22:22:00,64.8,59.1,30.21,North,0,0.0,0.0,82,0.00,CLR,FEW,0.00,WeatherDisplay:10.37,2013-04-17 02:22:00,
2013-04-16 22:27:00,64.8,59.5,30.21,North,0,0.0,0.0,83,0.00,CLR,FEW,0.00,WeatherDisplay:10.37,2013-04-17 02:27:00,
2013-04-16 22:33:00,64.8,59.5,30.24,North,0,0.0,0.0,83,0.00,CLR,FEW,0.00,WeatherDisplay:10.37,2013-04-17 02:33:00,
2013-04-16 22:38:00,64.6,59.3,30.24,North,0,0.0,0.0,83,0.00,CLR,FEW,0.00,WeatherDisplay:10.37,2013-04-17 02:38:00,
2013-04-16 22:43:00,64.6,59.3,30.24,North,0,0.0,0.0,83,0.00,CLR,FEW,0.00,WeatherDisplay:10.37,2013-04-17 02:43:00,
2013-04-16 22:48:00,64.4,59.5,30.21,North,0,0.0,0.0,84,0.00,CLR,FEW,0.00,WeatherDisplay:10.37,2013-04-17 02:48:00,
2013-04-16 22:53:00,64.4,59.5,30.21,North,0,0.0,0.0,84,0.00,CLR,FEW,0.00,WeatherDisplay:10.37,2013-04-17 02:53:00,
2013-04-16 22:58:00,64.4,59.5,30.21,North,0,0.0,0.0,84,0.00,CLR,FEW,0.00,WeatherDisplay:10.37,2013-04-17 02:58:00,
2013-04-16 23:03:00,64.4,59.8,30.21,North,0,0.0,0.0,85,0.00,CLR,FEW,0.00,WeatherDisplay:10.37,2013-04-17 03:03:00,
2013-04-16 23:08:00,64.4,59.8,30.21,North,0,0.0,0.0,85,0.00,CLR,FEW,0.00,WeatherDisplay:10.37,2013-04-17 03:08:00,
2013-04-16 23:13:00,64.2,59.9,30.21,North,0,0.0,0.0,86,0.00,CLR,FEW,0.00,WeatherDisplay:10.37,2013-04-17 03:13:00,
2013-04-16 23:18:00,64.2,59.9,30.21,North,0,0.0,0.0,86,0.00,CLR,FEW,0.00,WeatherDisplay:10.37,2013-04-17 03:18:00,
2013-04-16 23:23:00,64.2,59.9,30.21,North,0,0.0,0.0,86,0.00,CLR,FEW,0.00,WeatherDisplay:10.37,2013-04-17 03:23:00,
2013-04-16 23:28:00,64.4,60.1,30.21,North,0,0.0,0.0,86,0.00,CLR,FEW,0.00,WeatherDisplay:10.37,2013-04-17 03:28:00,
2013-04-16 23:33:00,64.2,60.3,30.21,North,0,0.0,0.0,87,0.00,CLR,FEW,0.00,WeatherDisplay:10.37,2013-04-17 03:33:00,
2013-04-16 23:38:00,64.2,60.3,30.21,North,0,0.0,0.0,87,0.00,CLR,FEW,0.00,WeatherDisplay:10.37,2013-04-17 03:38:00,
2013-04-16 23:43:00,64.4,60.4,30.21,North,0,0.0,0.0,87,0.00,CLR,FEW,0.00,WeatherDisplay:10.37,2013-04-17 03:43:00,
2013-04-16 23:48:00,64.4,60.4,30.21,North,0,0.0,0.0,87,0.00,CLR,FEW,0.00,WeatherDisplay:10.37,2013-04-17 03:48:00,
2013-04-16 23:53:00,64.2,60.6,30.21,North,0,0.0,0.0,88,0.00,CLR,FEW,0.00,WeatherDisplay:10.37,2013-04-17 03:53:00,
2013-04-16 23:58:00,64.2,60.6,30.21,North,0,0.0,0.0,88,0.00,CLR,FEW,0.00,WeatherDisplay:10.37,2013-04-17 03:58:00,